Flag for U.S.A. Weather past 2 weeks in Madison, Wisconsin, U.S.A.

Now
65 °F

Clear.


Feels Like: 65 °F
Forecast: 63 / 84 °F
Wind: No wind

Location: Dane County Regional-Truax Field

Current Time: Aug 20, 2014 at 12:50:24 AM

Latest Report: Aug 19, 2014 at 11:53 PM


Visibility: 10 mi

Pressure: 29.77 "Hg

Humidity: 91%

Dew point: 62 °F

Location of MadisonLocation

Historic Weather in Madison — Graph

°F

Madison temperature yesterday

Maximum temperature yesterday: 81 °F (at 1:53 PM)
Minimum temperature yesterday: 65 °F (at 11:53 PM)
Average temperature yesterday: 73 °F

Past Weeks' High & Low Weather Summary

 TemperatureHumidityPressure
High84 °F (Aug 16, 4:53 PM)97% (Aug 5, 4:53 AM)30.15 "Hg (Aug 5, 4:53 AM)
Low49 °F (Aug 15, 5:53 AM)41% (Aug 14, 5:53 PM)29.65 "Hg (Aug 19, 3:53 AM)
Average69 °F71%29.98 "Hg
* Reported Aug 4 11:53 PM — Aug 19 11:53 PM, Madison, Weather by CustomWeather, © 2014

Note: Actual official high and low records may vary slightly from our data, if they occured in-between our weather recording intervals... More about our weather records

Advertising

Madison weather history for previous 24 hours

 ConditionsComfort  
Time TempWeatherWind HumidityBarometerVisibility
11:53 PM
Aug 19
65 °FClear.No wind91%29.77 "Hg10 mi
10:53 PM66 °FPassing clouds.No wind90%29.77 "Hg10 mi
9:53 PM67 °FPassing clouds.No wind87%29.76 "Hg10 mi
8:53 PM69 °FPassing clouds.No wind84%29.74 "Hg10 mi
7:53 PM73 °FScattered clouds.No wind74%29.72 "Hg10 mi
6:53 PM78 °FScattered clouds.6 mph60%29.71 "Hg10 mi
5:53 PM80 °FPartly sunny.8 mph54%29.71 "Hg10 mi
4:53 PM81 °FScattered clouds.10 mph53%29.70 "Hg10 mi
3:53 PM79 °FBroken clouds.8 mph58%29.69 "Hg10 mi
2:53 PM81 °FScattered clouds.6 mph58%29.69 "Hg10 mi
1:53 PM81 °FPartly sunny.9 mph58%29.68 "Hg10 mi
12:53 PM80 °FPartly sunny.10 mph60%29.69 "Hg10 mi
11:53 AM79 °FPartly sunny.7 mph65%29.70 "Hg10 mi
10:53 AM77 °FBroken clouds.6 mph69%29.69 "Hg10 mi
9:53 AM74 °FPartly sunny.5 mph76%29.69 "Hg10 mi
8:53 AM72 °FScattered clouds.8 mph81%29.69 "Hg10 mi
7:53 AM70 °FScattered clouds.6 mph87%29.67 "Hg10 mi
6:53 AM68 °FPassing clouds.7 mph90%29.66 "Hg10 mi
5:53 AM67 °FPassing clouds.6 mph90%29.66 "Hg10 mi
4:53 AM68 °FPassing clouds.6 mph87%29.66 "Hg10 mi
3:53 AM68 °FClear.5 mph87%29.65 "Hg10 mi
2:53 AM68 °FThundershowers. Partly cloudy.5 mph90%29.67 "Hg10 mi
1:58 AM66 °FThunderstorms. Fog.No wind93%29.71 "Hg3 mi
12:53 AM73 °FPartly cloudy.14 mph84%29.68 "Hg9 mi
Weather by CustomWeather, © 2014

See weather overviewHow to use our weather pages